RajaVIP
Jackpot4D

Jackpot

Texas Poker Multi Jackpot System

Kini Telah hadir Jackpot SUPER ROYAL FLUSH

Kini Telah hadir Jackpot 2000 (khusus table VIP keatas).

Ikutilah global jackpot yang tersedia di system kami, dengan system jackpot terbaru dan pertama di indonesia, anda dapat membeli jackpot dengan harga 100 rupiah saja dan menangkan hadiahnya hingga puluhan juta rupiah.

Jackpot bukanlah suatu keharusan untuk dibeli, namun kami memberikan suatu fitur tambahan untuk member tercinta dari www.sempakku.com.

Terdapat tiga pilihan harga jackpot yang bisa anda beli yaitu :100,500,1000 dan 2000(khusus table VIP Keatas) rupiah.

Hadiah dari Multi jackpot system www.sempakku.com

  1. full house x 10 harga jackpot yang anda beli.
      (contoh:anda membeli 1000 maka:1000 X10 = 10.000)
  2. four of kind x 250 harga jackpot yang anda beli
      (contoh:anda membeli 1000 maka:1000 X250 = 250.000)
  3. Straight flush x 1200
      (contoh:anda membeli 1000 maka:1000 X1200 = 1.200.000)
  4. Royal flush x 10000 harga jackpot yang anda beli
      (contoh:anda membeli 1000 maka:1000 X10000 = 10.000.000)
  5. SUPER ROYAL FLUSH x 30000 harga jackpot yang anda beli
      (contoh:anda membeli 1000 maka:1000 X30000 = 30.000.000)

Kondisi kartu

  1. full house adalah kondisi kartu dimana kartu anda dan kartu tengah dengan total 7 kartu bisa mendapatkan nilai 5 kartu dengan kombinasi 1 tris(three of kind) dan 1 pair, contoh 3 kartu 10 dan 2 kartu 5
  2. Four of kind adalah kondisi kartu dimana kartu anda dan kartu tengah dengan total 7 kartu bisa mendapatkan nilai 5 kartu dengan kombinasi 4 kartu yang sama jumlah dan 1 kartu apapun juga contoh anda mendapatkan 4 buah kartu angka 3 dan 1 kartu apapun.
  3. Staright flush adalah kondisi kartu dimana kartu anda dan kartu tengah dengan total 7 kartu bisa mendapatkan nilai 5 kartu dengan kombinasi seri / staright dengan kembang yang sama contoh : urutan kartu dari angka 5, 6, 7, 8 , 9 10 dengan kembang yg sama misalnya as hati
  4. Royal flush adalah kondisi kartu dimana kartu anda dan kartu tengah dengan total 7 kartu bisa mendapatkan nilai 5 kartu dengan kombinasi seri / staright dengan kembang yang sama tetapi kartu tersebut haruslah dimulai dari 10. contoh 10, Queen, Jack, King dan aces dengan kembang yang sama
  5. Super Royal flush adalah kondisi kartu dimana Kedua kartu anda digabung dengan 3 kartu pertama meja haruslah royal flush. contoh kartu anda 10,Queen kembang sama dan 3 kartu pertama meja adalah Jack, King dan aces dengan kembang yang sama

Demikian adalah penjelasan dari Multi Jackpot www.sempakku.com terima kasih dan selamat bermain salam hoki dari kami

Texas Poker Jackpot Winner

TOP SUPER ROYAL FLUSH
No.TanggalNamaPriceWin
121/07 02:20YOKOKLENSuper Royal flush1,500,000
221/07 00:26RIKACELL11Super Royal flush3,000,000
321/07 00:08ANKAR2018Super Royal flush6,000,000
421/07 00:07GACIEL1988Super Royal flush15,000,000
520/07 23:44KEKASIIHKUSuper Royal flush30,000,000
TOP ROYAL FLUSH
No.TanggalNamaPriceWin
121/07 06:29K0L3NK88Royal flush2,000,000
221/07 06:23KIMSALVE30Royal flush10,000,000
321/07 06:05AN75Z401MKRoyal flush2,000,000
421/07 05:12NDX9999Royal flush10,000,000
521/07 04:59PRASANGKA1Royal flush5,000,000
TOP STRAIGHT FLUSH
No.TanggalNamaPriceWin
121/07 07:02JJJRRRIIIStraight Flush240,000
221/07 06:5677___77Straight Flush120,000
321/07 06:55TEMPIK01Straight Flush240,000
421/07 06:54BAYDAR888Straight Flush240,000
521/07 06:50TONGG0S87Straight Flush240,000
LATEST JACKPOT
No.TanggalNamaPriceWin
121/07 07:03CHESAR02Full House5,000
221/07 07:03DENNY1984Full House5,000
321/07 07:03JENDERAL03Full House5,000
421/07 07:03BARUSBARUSFull House2,000
521/07 07:03SUKMANAH09Full House2,000
621/07 07:03DEDESUN99Full House2,000
721/07 07:02DWBTHON194Full House5,000
821/07 07:02TAMPU6666Full House1,000
921/07 07:02KASIHB0SFull House10,000
1021/07 07:02THEMOQNNFull House5,000
1121/07 07:02B465480666Full House1,000
1221/07 07:02COCOCMFull House5,000
1321/07 07:02MMAANNAAFull House10,000
1421/07 07:02JJJRRRIIIStraight Flush240,000
1521/07 07:02NDX9999Full House5,000
1621/07 07:02FN7DDJ8QI9Full House5,000
1721/07 07:02DIZIPOKER8Full House5,000
1821/07 07:02KWECENGZARFull House2,000
1921/07 07:02KEMBEW99Full House1,000
2021/07 07:02SARYE23Full House2,000
2121/07 07:02RASANTANGFull House1,000
2221/07 07:02PLGMERATUS77Full House10,000
2321/07 07:02C5545AF3Full House2,000
2421/07 07:02ANGA1976Full House10,000
2521/07 07:02BRION18Full House2,000
2621/07 07:02AL_AID4NFull House5,000
2721/07 07:02JAPRA8778Full House10,000
2821/07 07:02SYEET4SFull House2,000
2921/07 07:02MANGSUGESTFull House2,000
3021/07 07:02JU4ND4XXFull House10,000
3121/07 07:02B1990151Full House5,000
3221/07 07:02WIKNYO87Full House10,000
3321/07 07:02ROVNDERSFull House5,000
3421/07 07:02121314Full House5,000
3521/07 07:02SITAN87Full House1,000
3621/07 07:02BH3G4LLFull House2,000
3721/07 07:02AIN1717Full House2,000
3821/07 07:02M999MLNFull House10,000
3921/07 07:02ZHARCODESFour Of A Kind50,000
4021/07 07:02POLIN01Full House5,000
4121/07 07:01LIBAAZZFull House5,000
4221/07 07:01C75VIP817Full House2,000
4321/07 07:01HADI_12Four Of A Kind25,000
4421/07 07:01CIKA_CIK44Full House2,000
4521/07 07:01BOLBAUFull House1,000
4621/07 07:01MUMUJORE13Four Of A Kind50,000
4721/07 07:01DIK911Full House1,000
4821/07 07:01HP7272Full House5,000
4921/07 07:01GIL4_LO3Full House2,000
5021/07 07:01SRIY4N1Full House5,000

Domino Multi Jackpot System

Ikutilah global jackpot yang tersedia di system kami, dengan system jackpot terbaru dan pertama di indonesia, anda dapat membeli jackpot dengan harga 100 rupiah saja dan menangkan hadiahnya hingga puluhan juta rupiah.

Jackpot bukanlah suatu keharusan untuk dibeli, namun kami memberikan suatu fitur tambahan untuk member tercinta dari www.sempakku.com.

Terdapat tiga pilihan harga jackpot yang bisa anda beli yaitu :100,500 dan 1000 rupiah.

Hadiah dari Multi jackpot system www.sempakku.com

  1. Murni Kecil x 50 harga jackpot yang anda beli.
      (contoh:anda membeli 1000 maka:1000 X 50 = 50.000)
  2. Murni Besar x 50 harga jackpot yang anda beli
      (contoh:anda membeli 1000 maka:1000 X 50 = 50.000)
  3. BALAK x 100 harga jackpot yang anda beli
      (contoh:anda membeli 1000 maka:1000 X 100 = 100.000)
  4. ENAM DEWA x 6666 harga jackpot yang anda beli
      (contoh:anda membeli 1000 maka:1000 X 6666 = 6.666.000)

Demikian adalah penjelasan dari Multi Jackpot www.sempakku.com terima kasih dan selamat bermain salam hoki dari kami

Domino Jackpot Winner

TOP ENAM DEWA
No.TanggalNamaPriceWin
121/07 01:22GARANG6666murni enam666,600
220/07 23:52BONG023murni enam6,666,000
320/07 23:19ACAIYHAHmurni enam6,666,000
420/07 22:40ANDREEW80murni enam6,666,000
520/07 21:10SNI53447murni enam666,600
TOP BALAK
No.TanggalNamaPriceWin
121/07 07:00BBC5FB50balak10,000
221/07 06:54DELLUbalak10,000
321/07 06:54SARDADU17balak50,000
421/07 06:50TAMI012balak100,000
521/07 06:47MENYUNSURObalak50,000
LATEST JACKPOT
No.TanggalNamaPriceWin
121/07 07:02SORIPADA567murni besar5,000
221/07 07:02APRIL365murni kecil5,000
321/07 07:02DIDUDAM88murni kecil5,000
421/07 07:01JGERmurni besar50,000
521/07 07:00BBC5FB50balak10,000
621/07 06:58CULA89murni kecil50,000
721/07 06:57UWOK1213murni besar50,000
821/07 06:57B3JOO7murni kecil50,000
921/07 06:56JOESUKSESmurni besar5,000
1021/07 06:56MEGALOMAN9murni kecil50,000
1121/07 06:56FE03758Amurni kecil5,000
1221/07 06:55TASHIMmurni kecil50,000
1321/07 06:55EMANEKOKmurni besar50,000
1421/07 06:54DELLUbalak10,000
1521/07 06:54SARDADU17balak50,000
1621/07 06:54ABAYOS99murni kecil50,000
1721/07 06:54RAYA1313murni besar25,000
1821/07 06:51SEV77lucky9950,000
1921/07 06:50TAMI012balak100,000
2021/07 06:50AADRBAAD25murni besar50,000
2121/07 06:50IKBALVE999murni kecil25,000
2221/07 06:49KECUK26murni kecil25,000
2321/07 06:48WIRDES1712murni kecil5,000
2421/07 06:48JIETOE88murni kecil50,000
2521/07 06:47MULYA90murni besar50,000
2621/07 06:47MENYUNSURObalak50,000
2721/07 06:47FA_JAR_99lucky9910,000
2821/07 06:45GADIS0916murni besar50,000
2921/07 06:42BARRE55murni kecil50,000
3021/07 06:40KRISTAL06murni kecil5,000
3121/07 06:39JRENGEZbalak10,000
3221/07 06:39ALINE20murni kecil25,000
3321/07 06:38KIKIW39murni besar50,000
3421/07 06:37D2A0AAF7murni besar25,000
3521/07 06:37D2A0AAF7murni besar25,000
3621/07 06:36ABAYOS99murni besar50,000
3721/07 06:36EFICK11balak100,000
3821/07 06:35TOMPUNbalak50,000
3921/07 06:35BR4NBRYNbalak100,000
4021/07 06:35BLIZLOVE24murni kecil50,000
4121/07 06:35CIMENGmurni besar50,000
4221/07 06:33ZKL0AY4HBEmurni besar25,000
4321/07 06:33TAMI012murni kecil50,000
4421/07 06:32ABON09murni kecil50,000
4521/07 06:32DWBTAHAI98murni besar25,000
4621/07 06:31KIKIW39murni kecil50,000
4721/07 06:30TAMI012murni besar50,000
4821/07 06:28BILABONG77murni besar50,000
4921/07 06:27JALANGARbalak10,000
5021/07 06:26JRENGEZmurni kecil5,000

Ceme Multi Jackpot System

Jackpot dilihat dari gabungan kartu pemain dengan kartu bandar. Bandar harus membeli jackpot sebanyak jumlah player yang sedang duduk. Sebagai contoh bila terdapat 3 pemain duduk bermain, dan bandar memutuskan untuk membeli jackpot Rp 1.000, maka pada periode tersebut bandar akan membeli jackpot sebanyak 3xRp1.000 = Rp3.000.

Jackpot bukanlah suatu keharusan untuk dibeli, namun kami memberikan suatu fitur tambahan untuk member tercinta dari www.sempakku.com.

Terdapat tiga pilihan harga jackpot yang bisa anda beli yaitu :100,500 dan 1000 rupiah.

Hadiah dari Multi jackpot system www.sempakku.com

  1. Murni Kecil x 50 harga jackpot yang anda beli.
      (contoh:anda membeli 1000 maka:1000 X 50 = 50.000)
  2. Murni Besar x 50 harga jackpot yang anda beli
      (contoh:anda membeli 1000 maka:1000 X 50 = 50.000)
  3. BALAK x 200 harga jackpot yang anda beli
      (contoh:anda membeli 1000 maka:1000 X 200 = 200.000)
  4. ENAM DEWA x 6666 harga jackpot yang anda beli
      (contoh:anda membeli 1000 maka:1000 X 6666 = 6.666.000)

Demikian adalah penjelasan dari Multi Jackpot www.sempakku.com terima kasih dan selamat bermain salam hoki dari kami

Ceme Jackpot Winner

TOP ENAM DEWA
No.TanggalNamaPriceWin
121/07 06:14RAJEK04murni enam6,666,000
221/07 06:14CHOLISI33murni enam666,600
321/07 05:23ATHECAmurni enam666,600
421/07 05:15S4RY24murni enam6,666,000
521/07 05:15KJMK0N2G6Wmurni enam6,666,000
TOP BALAK
No.TanggalNamaPriceWin
121/07 07:02ROYKEAJA02balak20,000
221/07 07:01KINGSTOWNbalak200,000
321/07 07:00VIGASbalak100,000
421/07 07:00BULL_77balak200,000
521/07 06:59BNN2016balak20,000
LATEST JACKPOT
No.TanggalNamaPriceWin
121/07 07:02ORTEGA8790murni kecil25,000
221/07 07:02GANTENG37murni kecil5,000
321/07 07:02KEUKEUKCAImurni besar25,000
421/07 07:02ICAN30murni besar25,000
521/07 07:02JAYAA112murni kecil50,000
621/07 07:02ROYKEAJA02balak20,000
721/07 07:02SKAMPUNG75murni kecil25,000
821/07 07:01RENDYFATRImurni kecil25,000
921/07 07:01LK4DBIMA1973murni kecil5,000
1021/07 07:01APACHAM1murni kecil25,000
1121/07 07:01SUKSESVROmurni kecil50,000
1221/07 07:01KINGSTOWNbalak200,000
1321/07 07:01JAGAT88murni besar25,000
1421/07 07:01DEXA018murni besar50,000
1521/07 07:00BG4370ZRmurni kecil5,000
1621/07 07:00BALAP87murni kecil50,000
1721/07 07:00VIGASbalak100,000
1821/07 07:00BULL_77balak200,000
1921/07 07:00PAKBEEKBROmurni besar50,000
2021/07 07:00MELLY904murni besar5,000
2121/07 07:00RAIZERXmurni kecil5,000
2221/07 07:00AHMADAQIL2murni kecil25,000
2321/07 07:00RAIZERXmurni kecil5,000
2421/07 07:00HANOV88murni kecil50,000
2521/07 07:00THAI_RICEmurni kecil50,000
2621/07 06:59BNN2016balak20,000
2721/07 06:59RISENZKYbalak20,000
2821/07 06:59MAT4DU1Tmurni kecil50,000
2921/07 06:59MAT4DU1Tmurni kecil50,000
3021/07 06:59HOKITRZ72murni kecil50,000
3121/07 06:59FILTER51murni besar50,000
3221/07 06:59SUKSESVROmurni besar50,000
3321/07 06:58VINALA22murni kecil50,000
3421/07 06:58SEIKAL88murni kecil50,000
3521/07 06:58PAK_BUPATImurni kecil25,000
3621/07 06:58KH666murni kecil50,000
3721/07 06:58TOMJERmurni kecil50,000
3821/07 06:58JHONKEY889murni kecil25,000
3921/07 06:58TOMJERmurni kecil50,000
4021/07 06:58PACEMEmurni kecil50,000
4121/07 06:57T4DJADUL99balak200,000
4221/07 06:57VIGASmurni kecil25,000
4321/07 06:57ELANKK14murni kecil50,000
4421/07 06:57K3N4R00Kmurni kecil50,000
4521/07 06:57YMAS99murni kecil50,000
4621/07 06:57K3N4R00Kmurni kecil50,000
4721/07 06:56DVD9999murni kecil50,000
4821/07 06:56VIGASmurni kecil25,000
4921/07 06:56M4KTHOmurni kecil25,000
5021/07 06:56KIPODOLAmurni kecil50,000